Simultaneous Nadir Overpasses (SNOs) Predictions

Prediction of SNOs between NOAA-19 and TERRA Satellite Orbit:

Table of predicted SNOs for the next 14.0 days since TLE Epoch: 6/2/2012
Index Date (NOAA-19) Time (NOAA-19) NOAA-19 Lat,Lon Date (TERRA) Time (TERRA) TERRA Lat,Lon Distance(km) Time Diff (sec)
1 06/04/2012 05:17:10 -69.07, -80.10 06/04/2012 05:18:22 -69.06, -80.13 1.80 72
2 06/04/2012 06:08:10 68.92, 87.34 06/04/2012 06:07:49 68.95, 87.37 2.93 21
3 06/06/2012 10:01:52 -69.05,-151.24 06/06/2012 10:02:37 -69.05,-151.21 1.54 45
4 06/06/2012 10:52:51 68.88, 16.23 06/06/2012 10:52:05 68.88, 16.22 0.41 46
5 06/08/2012 14:46:33 -68.98, 137.67 06/08/2012 14:46:53 -68.97, 137.64 1.90 20
6 06/08/2012 15:37:32 68.85, -54.89 06/08/2012 15:36:20 68.85, -54.86 1.50 72
7 06/10/2012 18:40:21 69.52,-101.51 06/10/2012 18:41:31 69.44,-100.45 42.29 70
8 06/10/2012 19:31:14 -68.93, 66.58 06/10/2012 19:31:08 -68.94, 66.54 2.29 6
9 06/10/2012 20:21:57 67.97,-124.90 06/10/2012 20:20:49 68.04,-126.91 84.31 68
10 06/12/2012 23:24:54 69.08,-172.04 06/12/2012 23:25:52 69.07,-172.00 2.71 58
11 06/13/2012 00:15:55 -68.88, -4.53 06/13/2012 00:15:23 -68.91, -4.56 2.96 32
12 06/15/2012 04:09:34 69.02, 116.88 06/15/2012 04:10:07 69.02, 116.88 0.57 33
13 06/15/2012 05:00:36 -68.85, -75.66 06/15/2012 04:59:38 -68.86, -75.68 1.73 58




NCC Satellite Simultaneous Nadir Overpasses (SNOs) Prediction Service
